Location: Newark
(21.1200°N, 73.4000°E)
Time: 22:33:51
(UTC+00:00)

deb Explorer IX - All Passes

Search period start: 22 January 2020 00:00
Search period end: 01 February 2020 00:00
Orbit: 548 x 1101 km, 38.8° (Epoch: 22 January)

Date Brightness Start Highest point End Pass type
(mag) Time Alt. Az. Time Alt. Az. Time Alt. Az.
22 Jan - 00:46:22 10° WNW 00:52:32 75° SW 00:57:44 10° SE visible
22 Jan - 02:37:32 10° WSW 02:38:49 11° SW 02:40:05 10° SSW daylight
22 Jan - 15:21:31 10° SW 15:27:56 52° SE 15:34:56 10° ENE visible
22 Jan - 17:08:47 10° W 17:15:31 47° NNW 17:22:30 10° NE visible
22 Jan - 18:58:53 10° WNW 19:04:13 21° NNW 19:09:29 10° NE night (unlit)
22 Jan - 20:48:56 10° NW 20:53:36 18° N 20:58:01 10° NE night (unlit)
22 Jan - 22:36:33 10° NW 22:42:32 32° NNE 22:47:50 10° E visible
23 Jan - 00:23:53 10° WNW 00:30:13 74° SW 00:35:35 10° SE visible
23 Jan - 02:15:01 10° WSW 02:16:33 11° SW 02:18:01 10° SSW daylight
23 Jan - 14:59:12 10° SW 15:05:30 52° SE 15:12:27 10° ENE visible
23 Jan - 16:46:28 10° W 16:53:04 46° NNW 17:00:03 10° NE visible
23 Jan - 18:36:30 10° WNW 18:41:49 21° NNW 18:47:06 10° NE night (unlit)
23 Jan - 20:26:26 10° NW 20:31:13 18° N 20:35:47 10° NE night (unlit)
23 Jan - 22:14:01 10° NW 22:20:10 33° NNE 22:25:41 10° E visible
24 Jan - 00:01:23 10° WNW 00:07:53 73° SW 00:13:25 10° SE visible
24 Jan - 01:52:29 10° WSW 01:54:14 11° SW 01:55:54 10° SSW daylight
24 Jan - 14:36:56 10° SW 14:43:04 53° SE 14:49:58 10° ENE visible
24 Jan - 16:24:09 10° W 16:30:38 45° NNW 16:37:34 10° NE visible
24 Jan - 18:14:08 10° WNW 18:19:24 21° NNW 18:24:42 10° NE night (unlit)
24 Jan - 20:03:56 10° NW 20:08:50 19° N 20:13:32 10° NE night (unlit)
24 Jan - 21:51:29 10° NW 21:57:47 34° NNE 22:03:28 10° E visible
24 Jan - 23:38:52 10° WNW 23:45:31 72° SW 23:51:12 10° SE visible
25 Jan - 01:29:57 10° WSW 01:31:54 12° SW 01:33:46 10° SSW daylight
25 Jan - 14:14:39 10° SW 14:20:39 53° SE 14:27:27 10° ENE visible
25 Jan - 16:01:52 10° W 16:08:12 44° NNW 16:15:05 10° NE visible
25 Jan - 17:51:47 10° WNW 17:56:59 21° N 18:02:16 10° NE night (unlit)
25 Jan - 19:41:27 10° NW 19:46:25 19° N 19:51:14 10° NE night (unlit)
25 Jan - 21:28:57 10° NW 21:35:24 35° NNE 21:41:14 10° E visible
25 Jan - 23:16:21 10° WNW 23:23:08 71° SW 23:28:59 10° SE visible
26 Jan - 01:07:25 10° WSW 01:09:33 12° SW 01:11:37 10° SSW visible
26 Jan - 13:52:23 10° SW 13:58:14 54° SE 14:04:56 10° ENE visible
26 Jan - 15:39:35 10° W 15:45:46 43° NNW 15:52:33 10° NE visible
26 Jan - 17:29:28 10° WNW 17:34:34 21° N 17:39:48 10° NE night (unlit)
26 Jan - 19:18:59 10° NW 19:24:00 19° N 19:28:55 10° NE night (unlit)
26 Jan - 21:06:25 10° NW 21:12:58 36° NNE 21:19:00 10° E night (unlit)
26 Jan - 22:53:49 10° WNW 23:00:43 70° SW 23:06:44 10° SE visible
27 Jan - 00:44:52 10° WSW 00:47:12 12° SW 00:49:25 10° SSW visible
27 Jan - 13:30:08 10° SW 13:35:49 54° SE 13:42:24 10° ENE visible
27 Jan - 15:17:19 10° W 15:23:20 41° NNW 15:30:01 10° NE visible
27 Jan - 17:07:08 10° NW 17:12:08 20° N 17:17:18 10° NE visible
27 Jan - 18:56:32 10° NW 19:01:34 20° N 19:06:33 10° NE night (unlit)
27 Jan - 20:43:53 10° NW 20:50:32 37° NNE 20:56:42 10° E night (unlit)
27 Jan - 22:31:17 10° WNW 22:38:18 69° SW 22:44:28 10° SE visible
28 Jan - 00:22:20 10° WSW 00:24:49 12° SW 00:27:11 10° SSW visible
28 Jan - 13:07:53 10° SW 13:13:25 55° SE 13:19:51 10° ENE visible
28 Jan - 14:55:04 10° W 15:00:54 40° NNW 15:07:27 10° NE visible
28 Jan - 16:44:50 10° NW 16:49:42 20° N 16:54:48 10° NE visible
28 Jan - 18:34:05 10° NW 18:39:08 20° N 18:44:10 10° NE night (unlit)
28 Jan - 20:21:22 10° NW 20:28:04 38° NNE 20:34:23 10° E night (unlit)
28 Jan - 22:08:45 10° WNW 22:15:51 68° SW 22:22:10 10° SE visible
28 Jan - 23:59:46 10° WSW 00:02:25 13° SW 00:04:56 10° SSW visible
29 Jan - 12:45:39 10° SW 12:51:01 55° SE 12:57:19 10° ENE daylight
29 Jan - 14:32:50 10° W 14:38:29 39° NNW 14:44:53 10° NE visible
29 Jan - 16:22:33 10° NW 16:27:16 19° N 16:32:15 10° NE visible
29 Jan - 18:11:39 10° NW 18:16:40 20° N 18:21:45 10° NE night (unlit)
29 Jan - 19:58:50 10° NW 20:05:36 38° NNE 20:12:02 10° E night (unlit)
29 Jan - 21:46:13 10° WNW 21:53:22 67° SW 21:59:50 10° SE visible
29 Jan - 23:37:14 10° WSW 23:39:59 13° SW 23:42:38 10° SSW visible
30 Jan - 12:23:24 10° SW 12:28:38 56° SE 12:34:46 10° ENE daylight
30 Jan - 14:10:36 10° W 14:16:04 37° NNW 14:22:18 10° NE visible
30 Jan - 16:00:17 10° NW 16:04:50 19° N 16:09:41 10° NE visible
30 Jan - 17:49:15 10° NW 17:54:13 20° N 17:59:18 10° NE night (unlit)
30 Jan - 19:36:20 10° NW 19:43:06 39° NNE 19:49:40 10° E night (unlit)
30 Jan - 21:23:40 10° WNW 21:30:53 66° SW 21:37:29 10° SE night (unlit)
30 Jan - 23:14:41 10° WSW 23:17:33 13° SW 23:20:19 10° SSW visible
31 Jan - 12:01:11 10° SW 12:06:15 56° SE 12:12:14 10° ENE daylight
31 Jan - 13:48:22 10° W 13:53:40 36° NNW 13:59:42 10° NE visible
31 Jan - 15:38:02 10° NW 15:42:25 18° N 15:47:05 10° NE visible
31 Jan - 17:26:51 10° NW 17:31:45 20° N 17:36:49 10° NE night (unlit)
31 Jan - 19:13:50 10° NW 19:20:36 40° NNE 19:27:15 10° E night (unlit)
31 Jan - 21:01:08 10° WNW 21:08:22 65° SW 21:15:06 10° SE night (unlit)
31 Jan - 22:52:09 10° WSW 22:55:06 13° SW 22:57:56 10° SSW visible
